• Join FlightAware (Why Join?)
  • Login
  • US Flag 
11:55PM EST


 

Airport Tracker/Info


-or-


 

Live Flight TrackerFlight Track Log ✈ ASQ4345 ✈ 22-Apr-2013 ✈ KCRP - KIAH

Flight Track Log - Related Links

Times and Time Zones

All times are in EDT time to prevent confusion due to time zone crossing. See the ASQ4345 flight status page for this flight to view local times or setup timezone preferences in your user account.

Time Position Orientation Groundspeed Altitude Reporting Facility
EDT Latitude Longitude Course Direction KTS MPH feet Rate Location/Type
11:38AM 27.7667 -97.4372 74° East 239 275 3,100  Level Houston Center
11:38AM 27.8131 -97.4208 17° North 260 299 4,800 2,507 Climbing Houston Center
11:39AM 27.8442 -97.4147 10° North 266 306 5,900 2,000 Climbing Houston Center
11:40AM 27.9834 -97.3633 35° Northeast  Level FlightAware Approximate
11:40AM 27.8853 -97.4031 14° North 263 303 6,900  Level Houston Center
11:41AM 28.0390 -97.3110 41° Northeast  Level FlightAware Approximate
11:41AM 27.9589 -97.3828 14° North 276 318 8,800  Level Houston Center
11:42AM 28.0932 -97.2568 41° Northeast  Level FlightAware Approximate
11:42AM 28.0272 -97.3325 33° Northeast 289 333 11,000  Level Houston Center
11:43AM 28.1075 -97.2617 38° Northeast 301 346 12,600 1,258 Climbing Houston Center
11:44AM 28.1811 -97.1917 40° Northeast 340 391 13,600 1,113 Climbing Houston Center
11:45AM 28.2606 -97.1183 39° Northeast 363 418 14,900 1,210 Climbing Houston Center
11:46AM 28.3394 -97.0467 39° Northeast 364 419 16,100 1,210 Climbing Houston Center
11:47AM 28.4200 -96.9708 40° Northeast 374 430 17,400 1,152 Climbing Houston Center
11:48AM 28.4853 -96.8758 52° Northeast 389 448 18,500 1,248 Climbing Houston Center
11:49AM 28.5489 -96.7456 61° Northeast 396 456 20,000 1,452 Climbing Houston Center
11:50AM 28.6028 -96.6342 61° Northeast 401 461 21,500 1,258 Climbing Houston Center
11:51AM 28.6581 -96.5236 60° Northeast 404 465 22,600 726 Climbing Houston Center
11:52AM 28.7139 -96.4072 61° Northeast 419 482 23,000 97 Climbing Houston Center
11:53AM 28.7953 -96.3097 46° Northeast 428 493 22,800 -919 Descending Houston Center
11:54AM 28.9328 -96.2761 12° North 421 484 21,100 -1,887 Descending Houston Center
11:55AM 29.0414 -96.2569 North 403 464 18,900 -1,968 Descending Houston Center
11:56AM 29.1475 -96.2383 North 392 451 17,000 -2,016 Descending Houston Center
11:57AM 29.2519 -96.2197 North 384 442 14,700 -2,242 Descending Houston Center
11:58AM 29.3350 -96.2069 North 379 436 13,300 -1,645 Descending Houston Center
11:58AM 29.3553 -96.2022 11° North 379 436 13,000 -1,605 Descending Houston Center
11:59AM 29.4650 -96.1828 North 330 380 11,000 -1,475 Descending Houston Center
12:00PM 29.5519 -96.1444 21° North 344 396 10,000 -492 Descending Houston Center
12:01PM 29.6067 -96.0469 57° Northeast 346 398 10,000  Level Houston Center
12:02PM 29.6597 -95.9569 56° Northeast 317 365 10,000 -738 Level Houston Center
12:03PM 29.7275 -95.9153 28° Northeast 276 318 8,500 -1,359 Descending Houston Center
12:04PM 29.8031 -95.8725 26° Northeast 280 322 7,100 -698 Descending Houston Center
12:05PM 29.8714 -95.8339 26° Northeast 266 306 7,000 -256 Descending Houston Center
12:06PM 29.9294 -95.8031 25° Northeast 235 270 6,600 -776 Descending Houston Center
12:07PM 29.9758 -95.7567 41° Northeast 232 267 5,500 -836 Descending Houston Center
12:08PM 29.9889 -95.6925 77° East 187 215 4,900 -344 Descending Houston Center
12:09PM 29.9919 -95.6317 87° East 185 213 4,800 -582 Descending Houston Center
12:11PM 29.9922 -95.5628 90° East 183 211 3,600 -984 Descending Houston Center
12:12PM 29.9914 -95.5089 91° East 185 213 2,700 -973 Descending Houston Center
12:12PM 29.9931 -95.4556 88° East 178 205 1,800 -964 Descending Houston Center